Weather History for Harrisburg, IL

Change the Weather History Date:

Sunday, March 10, 2013

  Actual Average (KMWA) Record (KMWA)
Temperature  
Mean Temperature 57 °F -  
Max Temperature 64 °F 52 °F 78 °F (1974)
Min Temperature 50 °F 30 °F 15 °F (1984)
Degree Days  
Heating Degree Days 8    
Growing Degree Days 7 (Base 50)    
Moisture  
Dew Point 44 °F    
Average Humidity 67    
Maximum Humidity 100    
Minimum Humidity 42    
Precipitation  
Precipitation 0.46 in - - ()
Sea Level Pressure  
Sea Level Pressure 29.81 in    
Wind  
Wind Speed 15 mph (South)    
Max Wind Speed 30 mph    
Max Gust Speed 37 mph    
Visibility 9 miles    
Events Rain    
Averages and records for this station are not official NWS values.
T = Trace of Precipitation, MM = Missing Value Source: NWS Daily Summary

Daily Weather History Graph

Daily Weather History Graph

Search for Another Location

Airport:

Trip Planner

Search our weather history database for the weather conditions in past years. The results will help you decide how hot, cold, wet, or windy it might be!

Date:

Astronomy

Mar. 10, 2013 Rise Set
Actual Time 7:12 AM CDT 6:56 PM CDT
Civil Twilight 6:46 AM CDT 7:23 PM CDT
Nautical Twilight 6:15 AM CDT 7:53 PM CDT
Astronomical Twilight 5:45 AM CDT 8:24 PM CDT
Moon 6:11 AM CDT (3/10) 6:04 PM CDT (3/10)
Length of Visible Light 12h 36m
Length of Day
11h 44m
Waning Crescent, 2% of the Moon is Illuminated
Mar 10
Waning Crescent
Mar 11
New
Mar 19
First Quarter
Mar 27
Full
Apr 2
Last Quarter

Hourly Weather History & Observations

Time (CDT) Temp. Dew Point Humidity Pressure Visibility Wind Dir Wind Speed Gust Speed Precip Events Conditions
12:15 AM 55.4 °F 35.6 °F 47% 29.91 in 10.0 mi South 10.4 mph 18.4 mph N/A   Clear
12:35 AM 55.4 °F 35.6 °F 47% 29.91 in 10.0 mi South 11.5 mph 16.1 mph N/A   Clear
12:55 AM 57.2 °F 35.6 °F 44% 29.91 in 10.0 mi South 16.1 mph 23.0 mph N/A   Clear
1:15 AM 59.0 °F 35.6 °F 42% 29.91 in 10.0 mi South 16.1 mph 25.3 mph N/A   Scattered Clouds
1:35 AM 59.0 °F 35.6 °F 42% 29.90 in 10.0 mi South 17.3 mph 23.0 mph N/A   Scattered Clouds
1:55 AM 59.0 °F 35.6 °F 42% 29.89 in 10.0 mi South 18.4 mph 27.6 mph N/A   Clear
3:15 AM 59.0 °F 35.6 °F 42% 29.89 in 10.0 mi South 19.6 mph 25.3 mph N/A   Scattered Clouds
3:35 AM 59.0 °F 35.6 °F 42% 29.87 in 10.0 mi South 17.3 mph 27.6 mph N/A   Mostly Cloudy
3:55 AM 59.0 °F 35.6 °F 42% 29.87 in 10.0 mi South 18.4 mph 26.5 mph N/A   Scattered Clouds
4:15 AM 59.0 °F 35.6 °F 42% 29.87 in 10.0 mi South 18.4 mph 24.2 mph N/A   Scattered Clouds
4:35 AM 59.0 °F 37.4 °F 45% 29.87 in 10.0 mi South 17.3 mph 20.7 mph N/A   Scattered Clouds
4:55 AM 59.0 °F 37.4 °F 45% 29.88 in 10.0 mi South 17.3 mph 23.0 mph N/A   Clear
5:15 AM 59.0 °F 37.4 °F 45% 29.88 in 10.0 mi South 15.0 mph 25.3 mph N/A   Clear
5:35 AM 59.0 °F 39.2 °F 48% 29.87 in 10.0 mi South 13.8 mph 21.9 mph N/A   Clear
5:55 AM 57.2 °F 41.0 °F 55% 29.86 in 10.0 mi South 15.0 mph - N/A   Clear
6:15 AM 57.2 °F 41.0 °F 55% 29.87 in 10.0 mi South 11.5 mph 19.6 mph N/A   Clear
6:35 AM 57.2 °F 39.2 °F 51% 29.87 in 10.0 mi South 12.7 mph - N/A   Clear
6:55 AM 57.2 °F 41.0 °F 55% 29.87 in 10.0 mi South 15.0 mph 20.7 mph N/A   Clear
7:15 AM 57.2 °F 39.2 °F 51% 29.88 in 10.0 mi South 17.3 mph 20.7 mph N/A   Clear
7:35 AM 57.2 °F 41.0 °F 55% 29.87 in 10.0 mi South 15.0 mph 20.7 mph N/A   Clear
7:55 AM 57.2 °F 41.0 °F 55% 29.88 in 10.0 mi South 12.7 mph - N/A   Clear
8:15 AM 59.0 °F 41.0 °F 51% 29.88 in 10.0 mi South 15.0 mph 23.0 mph N/A   Clear
8:35 AM 59.0 °F 42.8 °F 55% 29.87 in 10.0 mi South 15.0 mph 24.2 mph N/A   Clear
8:55 AM 59.0 °F 42.8 °F 55% 29.86 in 10.0 mi SSE 16.1 mph 26.5 mph N/A   Clear
9:15 AM 59.0 °F 42.8 °F 55% 29.85 in 10.0 mi SSE 16.1 mph 25.3 mph N/A   Clear
9:35 AM 59.0 °F 42.8 °F 55% 29.84 in 10.0 mi SSE 16.1 mph 20.7 mph N/A   Clear
9:55 AM 60.8 °F 42.8 °F 52% 29.84 in 10.0 mi SSE 18.4 mph 27.6 mph N/A   Clear
10:15 AM 60.8 °F 42.8 °F 52% 29.84 in 10.0 mi South 24.2 mph 27.6 mph N/A   Clear
10:35 AM 62.6 °F 42.8 °F 48% 29.84 in 10.0 mi South 20.7 mph 31.1 mph N/A   Clear
10:55 AM 60.8 °F 42.8 °F 52% 29.83 in 10.0 mi SSE 26.5 mph 32.2 mph N/A   Clear
11:15 AM 60.8 °F 42.8 °F 52% 29.84 in 10.0 mi South 19.6 mph 31.1 mph N/A   Scattered Clouds
11:35 AM 62.6 °F 42.8 °F 48% 29.84 in 10.0 mi SSE 21.9 mph 32.2 mph N/A   Clear
11:55 AM 62.6 °F 42.8 °F 48% 29.82 in 10.0 mi SSE 18.4 mph 27.6 mph N/A   Scattered Clouds
12:15 PM 62.6 °F 42.8 °F 48% 29.80 in 10.0 mi SSE 19.6 mph 26.5 mph N/A   Clear
12:35 PM 62.6 °F 44.6 °F 52% 29.79 in 10.0 mi South 25.3 mph 32.2 mph N/A   Scattered Clouds
12:55 PM 62.6 °F 42.8 °F 48% 29.78 in 10.0 mi SSE 29.9 mph 36.8 mph N/A   Clear
1:15 PM 64.4 °F 42.8 °F 45% 29.78 in 10.0 mi South 21.9 mph 33.4 mph N/A   Clear
1:35 PM 64.4 °F 42.8 °F 45% 29.77 in 10.0 mi South 24.2 mph 33.4 mph N/A   Clear
1:55 PM 64.4 °F 44.6 °F 49% 29.76 in 10.0 mi South 20.7 mph 29.9 mph N/A   Clear
2:15 PM 64.4 °F 44.6 °F 49% 29.74 in 10.0 mi South 23.0 mph 33.4 mph N/A   Scattered Clouds
2:35 PM 64.4 °F 44.6 °F 49% 29.73 in 10.0 mi South 21.9 mph 29.9 mph N/A   Mostly Cloudy
2:55 PM 64.4 °F 44.6 °F 49% 29.72 in 10.0 mi South 23.0 mph 31.1 mph N/A   Overcast
3:15 PM 64.4 °F 46.4 °F 52% 29.72 in 10.0 mi South 23.0 mph 35.7 mph N/A   Overcast
3:35 PM 64.4 °F 46.4 °F 52% 29.72 in 10.0 mi South 20.7 mph 29.9 mph N/A   Unknown
3:55 PM 64.4 °F 46.4 °F 52% 29.72 in 10.0 mi South 18.4 mph 28.8 mph N/A Rain Light Rain
4:15 PM 62.6 °F 50.0 °F 63% 29.72 in 7.0 mi South 21.9 mph 28.8 mph 0.01 in Rain Heavy Rain
4:35 PM 59.0 °F 51.8 °F 77% 29.75 in 5.0 mi SSW 13.8 mph - 0.05 in Rain Rain
4:55 PM 57.2 °F 53.6 °F 88% 29.76 in 4.0 mi WSW 11.5 mph - 0.07 in Rain Rain
5:15 PM 53.6 °F 51.8 °F 94% 29.77 in 5.0 mi WNW 12.7 mph - 0.04 in Rain Rain
5:35 PM 51.8 °F 50.0 °F 94% 29.78 in 3.0 mi WNW 11.5 mph - 0.14 in Rain Heavy Rain
5:55 PM 50.0 °F 50.0 °F 100% 29.79 in 7.0 mi West 10.4 mph - 0.18 in Rain Rain
6:15 PM 50.0 °F 50.0 °F 100% 29.76 in 4.0 mi NNW 3.5 mph - 0.03 in Rain Heavy Rain
6:35 PM 50.0 °F 50.0 °F 100% 29.77 in 4.0 mi East 5.8 mph - 0.09 in Rain Heavy Rain
6:55 PM 50.0 °F 50.0 °F 100% 29.76 in 5.0 mi ESE 10.4 mph - 0.15 in Rain Heavy Rain
7:15 PM 50.0 °F 50.0 °F 100% 29.75 in 7.0 mi ESE 9.2 mph - 0.04 in Rain Light Rain
7:35 PM 50.0 °F 50.0 °F 100% 29.75 in 10.0 mi ESE 5.8 mph - 0.04 in   Light Drizzle
7:55 PM 50.0 °F 50.0 °F 100% 29.77 in 10.0 mi SE 8.1 mph - 0.04 in   Overcast
8:15 PM 50.0 °F 50.0 °F 100% 29.77 in 10.0 mi SE 8.1 mph - N/A   Overcast
8:35 PM 50.0 °F 50.0 °F 100% 29.78 in 10.0 mi SE 4.6 mph - N/A   Overcast
8:55 PM 50.0 °F 50.0 °F 100% 29.78 in 4.0 mi SE 5.8 mph - 0.01 in Rain Heavy Rain
9:15 PM 50.0 °F 50.0 °F 100% 29.77 in 7.0 mi SE 5.8 mph - 0.01 in   Light Drizzle
9:35 PM 50.0 °F 50.0 °F 100% 29.76 in 10.0 mi Calm Calm - 0.01 in   Overcast
9:55 PM 50.0 °F 50.0 °F 100% 29.77 in 10.0 mi Calm Calm - 0.01 in   Overcast
10:15 PM 50.0 °F 50.0 °F 100% 29.77 in 10.0 mi SSW 3.5 mph - N/A   Overcast
10:35 PM 50.0 °F 50.0 °F 100% 29.76 in 10.0 mi SSE 5.8 mph - N/A   Mostly Cloudy
10:55 PM 50.0 °F 50.0 °F 100% 29.75 in 10.0 mi SSE 8.1 mph - N/A   Scattered Clouds
11:15 PM 50.0 °F 50.0 °F 100% 29.76 in 10.0 mi WSW 5.8 mph - N/A   Clear
11:35 PM 50.0 °F 50.0 °F 100% 29.77 in 10.0 mi SW 5.8 mph - N/A   Mostly Cloudy
11:55 PM 50.0 °F 50.0 °F 100% 29.77 in 10.0 mi SW 6.9 mph - N/A   Overcast
12:15 AM 50.0 °F 50.0 °F 100% 29.76 in 10.0 mi SW 6.9 mph - N/A   Overcast
12:35 AM 50.0 °F 50.0 °F 100% 29.75 in 10.0 mi SSW 10.4 mph - N/A   Overcast
12:55 AM 50.0 °F 50.0 °F 100% 29.75 in 10.0 mi SSW 10.4 mph - N/A   Overcast